sat.trackr.live / text

‹ back to catalog

STARLINK-32251

NORAD 60940 · 2024-155S

PAYLOAD ACTIVE UNKNOWN

§ Identity

Operator
Country
US
Launch date
2024-08-31
Launch site
AFWTR
Launch vehicle
Mass (kg)
RCS (m²)

Purposes: comms

External: N2YO · Heavens-Above · Gunter

§ Orbital elements

Epoch: 2026-05-25T03:12:57.642336Z

Period
94.11 min
Inclination
53.1591°
Eccentricity
0.0000654
Mean motion
15.30195249 rev/d
Perigee alt
474.8 km
Apogee alt
475.7 km
Semi-major
6,853.4 km
B*
2.2124e-5
RAAN
134.6768°
Arg perigee
57.8859°
Mean anomaly
302.2205°
Rev number
9,804

§ Raw data

STARLINK-322511 60940U 24155S   26145.13400049  .00000296  00000+0  22124-4 0  99962 60940  53.1591 134.6768 0000654  57.8859 302.2205 15.30195249 98041

JSON: /api/v1/satellites/60940 · /tle

For live sub-satellite position, see the globe view (requires WebGL).

§ Visibility from observer

Set your observer location to see the next 7 days of passes ≥ 10°. The values pass through the URL so the page stays shareable.

No JS? Fill the form by hand. The geolocation button needs JavaScript.